Regional Weather Roundup
Issued by NWS

Home | Current Version | Previous Version | Text Only | Print | Product List | Glossary Off
Versions: 1 2 3 4 5 6 7 8 9 10 11 12 13 14 15 16 17 18 19 20 21 22 23 24 25 26 27 28 29 30 31 32 33 34 35 36 37 38 39 40 41 42 43 44 45 46 47 48 49 50

000
ASUS43 KMKX 201900
RWRWI

WISCONSIN REGIONAL WEATHER ROUNDUP
NATIONAL WEATHER SERVICE MILWAUKEE/SULLIVAN WI
100 PM CST SAT DEC 20 2014

NOTE: "FAIR" INDICATES FEW OR NO CLOUDS BELOW 12,000 FEET WITH NO
SIGNIFICANT WEATHER AND/OR OBSTRUCTIONS TO VISIBILITY.

WIZ001-002-006>008-014>016-023>028-202000-
NORTHWEST WISCONSIN

CITY           SKY/WX    TMP DP  RH WIND       PRES   REMARKS
SUPERIOR ARPT  CLOUDY    32  27  82 S8        30.12F WCI  25
ASHLAND        CLOUDY    31  27  85 S3        30.15F
HAYWARD        CLOUDY    29  23  78 S9        30.13F HAZE    WCI  20
SIREN          CLOUDY    31  27  83 S8        30.13S FOG     WCI  24
CUMBERLAND     CLOUDY    30  27  86 S7        30.13S HAZE    WCI  23
RICE LAKE      CLOUDY    31  26  81 SE9       30.15F WCI  23
CHETEK         CLOUDY    30  26  83 E9        30.15F WCI  22
LADYSMITH      CLOUDY    30  26  84 SE5       30.17S WCI  25
EAU CLAIRE     CLOUDY    31  25  78 S8        30.17S WCI  23
MENOMONIE      CLOUDY    32  27  80 S7        30.16F HAZE    WCI  26
NEW RICHMOND   CLOUDY    31  29  91 S12       30.14F FOG     WCI  22
OSCEOLA        CLOUDY    32  29  88 S8        30.16F FOG     WCI  25
$$

WIZ003>005-009-010-017-018-202000-
NORTH CENTRAL WISCONSIN

CITY           SKY/WX    TMP DP  RH WIND       PRES   REMARKS
MANITOWISH WTR CLOUDY    26  25  97 S5        30.13F FOG     WCI  20
ARBOR VITAE    CLOUDY    27  24  89 SE6       30.14F FOG     WCI  21
WOODRUFF       CLOUDY    27  24  89 SE6       30.14F FOG     WCI  21
RHINELANDER    CLOUDY    26  24  92 SE5       30.15F FOG     WCI  20
EAGLE RIVER    CLOUDY    26  25  99 S3        30.14F FOG
LAND O LAKES   CLOUDY    26  25  96 S3        30.15F FOG
PHILLIPS       CLOUDY    28  24  88 S6        30.14S WCI  21
TOMAHAWK       CLOUDY    27  23  87 CALM      30.16F FOG
MEDFORD        CLOUDY    27  24  89 SE7       30.15F FOG     WCI  19
MERRILL        CLOUDY    27  25  92 S5        30.17F FOG     WCI  22
$$

WIZ029-030-035-036-043>047-202000-
CENTRAL WISCONSIN

CITY           SKY/WX    TMP DP  RH WIND       PRES   REMARKS
WAUSAU         CLOUDY    28  24  85 S5        30.17F FOG     WCI  23
MOSINEE        CLOUDY    28  27  93 SE5       30.18F WCI  23
MARSHFIELD     CLOUDY    30  25  81 S7        30.17F HAZE    WCI  23
STEVENS POINT  CLOUDY    28  23  81 SE7       30.19F WCI  21
WAUPACA        CLOUDY    31  24  75 SE3       30.22F
WAUTOMA        NOT AVBL
WISC RAPIDS    CLOUDY    30  23  75 S6        30.21F WCI  24
CAMP DOUGLAS   NOT AVBL
$$

WIZ011>013-019>022-031-037>040-048>050-202000-
NORTHEAST WISCONSIN

CITY           SKY/WX    TMP DP  RH WIND       PRES   REMARKS
ANTIGO         CLOUDY    25  24  96 SE6       30.17F FOG     WCI  18
SHAWANO        CLOUDY    30  26  83 CALM      30.22F
OCONTO         CLOUDY    28  24  83 CALM      30.24F
STURGEON BAY   CLOUDY    28  21  74 CALM      30.25F
GREEN BAY      CLOUDY    30  23  75 CALM      30.23F
MANITOWOC      NOT AVBL
APPLETON       CLOUDY    28  21  74 VRB3      30.23F
CLINTONVILLE   CLOUDY    30  23  74 CALM      30.22F
OSHKOSH        CLOUDY    28  23  81 CALM      30.23F HAZE
$$

WIZ032>034-041-042-053>061-202000-
SOUTHWEST WISCONSIN

CITY           SKY/WX    TMP DP  RH WIND       PRES   REMARKS
LA CROSSE      CLOUDY    33  26  75 S5        30.19F WCI  29
SPARTA         CLOUDY    31  26  80 S3        30.20F HAZE
VIROQUA        CLOUDY    29  29 100 SE7       30.17F WCI  22
BOSCOBEL       CLOUDY    32  26  78 CALM      30.22F HAZE
PRAIRIE DU CHI MIX PCPN  31  26  81 SE3       30.21F
PLATTEVILLE    CLOUDY    31  27  84 CALM      30.21F
$$

WIZ056-057-062-063-064-067-068-202000-
SOUTH CENTRAL WISCONSIN

CITY           SKY/WX    TMP DP  RH WIND       PRES   REMARKS
REEDSBURG      CLOUDY    29  25  84 SE5       30.20F WCI  24
BARABOO/DELLS  CLOUDY    29  25  82 SE6       30.21S WCI  23
LONE ROCK      NOT AVBL
MINERAL POINT  CLOUDY    32  28  86 SE9       30.20S FOG     WCI  24
MADISON        FLURRIES  30  24  78 S6        30.21F WCI  24
MIDDLETON      CLOUDY    32  26  78 SE3       30.22F
WATERTOWN      CLOUDY    29  25  84 S3        30.23S
MONROE         CLOUDY    30  28  93 S7        30.21F FOG     WCI  23
JANESVILLE     CLOUDY    32  25  74 CALM      30.23F
$$

WIZ051-052-058>065-066-070>072-202000-
SOUTHEAST WISCONSIN

CITY           SKY/WX    TMP DP  RH WIND       PRES   REMARKS
MILWAUKEE      CLOUDY    31  20  63 W3        30.24F
WAUKESHA       NOT AVBL
MILWAUKEE/TIMM CLOUDY    30  19  64 W3        30.25F
RACINE         CLOUDY    31  22  69 SW7       30.26F WCI  24
BURLINGTON     CLOUDY    28  23  80 S3        30.24F
KENOSHA        CLOUDY    31  24  75 W5        30.24F WCI  26
FOND DU LAC    LGT SNOW  29  23  78 S5        30.23F WCI  24
SHEBOYGAN      CLOUDY    31  22  69 CALM      30.23F
WEST BEND      CLOUDY    30  21  69 CALM      30.23S
JUNEAU         CLOUDY    28  24  83 S3        30.24S
$$

LSZ147-162-202000-
LAKE SUPERIOR

STATION/POSITION TIME  TEMP    WIND        PRES    WAVE
                       AIR SEA DIR/SP/G            HT/PER
                 (UTC) (F)     (DEG/KT/KT) (MB)    (FT/S)
DEVILS ISLAND    1800   30     180/  9/ 13 1021.9F
PORT WING        1800   32     170/  9/ 13 1020.7F
SAXON HARBOR     1700   31     180/  5/  8 1021.7F
$$

LMZ867-665-643>646-202000-
LAKE MICHIGAN

STATION/POSITION TIME  TEMP    WIND        PRES    WAVE
                       AIR SEA DIR/SP/G            HT/PER
                 (UTC) (F)     (DEG/KT/KT) (MB)    (FT/S)
CHAMBERS ISLAND  1800   28     230/  2/  4 1024.4F
NORTHPORT PIER   1830   29     320/  6/  8 1023.7F
ALGOMA LAKESHORE 1714          350/  7/  8   N/A
KEWAUNEE LAKESHO 1800   31     290/  2/  5 1023.5F
SHEBOYGAN LAKESH 1800   31 34  360/  5/  6 1025.3F
PORT WASHINGTON  1840   32     320/  3/  5 1024.7F
MILWAUKEE LAKESH 1800   30     230/  5/  6   N/A
KENOSHA   LAKESH 1800   31     200/  2/  3 1024.4F
$$

TC  - TEMPERATURE IN CELSIUS
VSB - VISIBILITY IN STATUTE MILES
WCI - WIND CHILL INDEX
HX  - HEAT INDEX




USA.gov is the U.S. government's official web portal to all federal, state and local government web resources and services.